Theta_e
345 347 347 346 345 344 345 343 341 342 341 341 341 341 340 340 340 339 339 338 337 335 334 335 337 337 337 339 338 337 338 336 335 337 338 339 339 334 330 329 328 326 326 325 326 326 326 326 326 326 327 327 327 327 328 330 331 332 332 332 332 331 331 331 331 331 332 332 332 331 331 331 331 331
345 345 347 347 345 345 346 344 342 343 343 342 342 341 340 340 340 339 340 339 337 336 334 334 337 338 339 339 338 338 339 336 334 338 337 337 338 334 328 327 326 326 326 326 327 327 326 326 326 326 327 327 327 327 329 331 331 332 332 331 331 330 330 330 331 331 331 331 332 332 331 331 331 331
345 345 346 347 346 345 346 344 342 343 343 341 342 341 341 341 340 340 340 339 339 337 336 335 337 338 339 339 338 338 340 336 333 336 338 336 334 330 328 328 327 327 328 328 328 327 326 326 326 328 328 328 328 328 329 331 332 332 331 330 329 328 328 329 330 331 331 331 332 331 331 331 331 331
346 347 346 347 347 346 346 344 342 343 343 341 341 341 341 341 340 340 340 341 341 339 337 337 337 337 338 339 339 338 340 338 332 334 338 336 332 331 333 333 331 329 328 328 328 326 325 326 327 328 328 328 328 328 329 330 331 332 331 330 329 328 328 328 329 330 330 330 330 330 329 329 328 328
347 348 347 346 348 347 346 344 342 342 342 341 340 341 341 341 340 340 340 341 341 340 339 338 337 337 337 338 339 338 339 339 335 335 338 336 334 334 336 336 334 333 330 328 328 327 326 327 327 329 329 328 327 327 327 328 329 330 331 330 330 329 328 328 328 329 328 328 328 328 327 326 326 326
349 349 347 346 347 347 346 344 342 341 342 341 340 341 341 340 340 341 340 341 341 340 341 340 339 339 338 338 339 338 337 338 338 337 337 337 336 336 335 334 334 335 332 329 328 327 326 327 327 328 328 328 327 326 327 327 328 328 329 329 329 328 328 328 328 327 326 325 324 324 323 323 323 323
350 349 348 346 346 347 346 345 342 341 342 341 340 341 341 340 340 342 341 341 342 341 341 340 339 340 339 338 339 339 337 337 337 337 337 337 336 336 336 335 334 335 333 331 328 327 326 326 326 326 326 326 326 325 326 326 326 326 326 327 327 327 326 326 325 324 322 320 320 320 319 319 320 321
351 350 349 345 345 347 347 345 343 342 342 342 340 341 342 341 341 342 343 342 341 341 341 341 340 339 340 339 339 339 338 338 338 338 338 338 337 337 338 337 337 337 334 330 328 327 325 324 324 324 324 325 324 325 325 324 324 324 324 323 323 323 322 321 321 320 319 318 319 320 320 320 319 320
352 351 349 346 345 347 347 346 345 344 343 342 342 341 342 342 341 342 344 343 341 342 342 342 341 340 340 339 339 340 339 339 340 340 339 339 338 338 338 337 338 337 335 333 332 330 327 326 327 326 325 325 324 324 324 323 322 322 321 320 320 320 319 319 319 319 319 319 320 321 322 322 322 321
353 351 350 347 346 347 347 346 346 345 345 344 343 342 342 343 343 342 343 344 342 342 342 342 341 342 341 340 340 341 340 339 339 341 341 340 340 340 340 338 337 336 336 335 334 332 331 330 330 329 327 325 325 324 323 321 320 320 320 319 319 319 320 320 320 320 320 320 321 321 322 323 323 322
353 352 351 349 348 348 347 346 346 347 346 345 344 343 342 343 344 343 343 344 343 343 343 342 341 341 340 340 341 342 342 340 340 340 340 340 341 342 342 341 339 337 336 335 333 331 331 330 329 329 327 326 326 325 324 322 320 320 320 320 320 320 321 321 320 319 319 319 319 319 320 321 321 320
354 352 351 350 349 349 348 346 346 347 348 347 345 343 343 343 344 342 343 344 344 344 343 343 341 341 341 341 341 343 343 341 341 340 339 339 339 341 341 341 340 338 336 335 332 331 332 331 329 329 328 327 326 326 325 324 323 323 322 321 321 321 320 319 318 317 317 317 317 317 317 318 318 316
354 353 352 351 349 349 348 345 345 346 348 348 345 344 344 344 344 343 342 344 345 344 343 343 342 341 341 341 341 343 343 341 341 341 341 339 338 339 340 340 339 338 336 334 331 331 331 331 330 329 328 327 326 325 325 325 325 325 322 320 318 318 318 317 315 315 315 315 315 315 315 316 316 316
355 354 353 352 350 349 348 345 343 343 345 346 345 345 345 344 344 343 342 343 345 345 343 342 342 341 341 341 340 342 342 341 341 341 341 340 339 339 339 338 338 337 335 333 332 331 330 330 329 328 327 327 326 325 324 324 324 322 319 317 315 314 314 313 312 312 312 311 311 311 311 312 313 313
356 355 354 353 351 348 347 346 344 342 343 343 342 343 344 343 343 343 343 343 343 344 343 342 340 340 340 340 341 341 341 340 340 340 340 340 339 339 339 337 336 335 334 333 331 330 329 329 328 327 327 327 325 324 324 323 322 320 316 313 311 310 310 309 309 310 310 310 310 310 311 312 312 313
357 356 355 354 353 350 347 346 345 343 342 342 341 340 340 340 340 340 342 343 343 344 343 342 340 340 339 340 342 341 339 339 340 340 340 340 339 338 337 334 333 333 332 331 329 328 327 327 326 326 325 324 323 323 322 322 320 316 312 309 308 309 310 310 311 312 312 313 313 314 315 316 316 316
357 357 355 354 354 351 348 346 346 345 342 341 341 339 338 337 337 337 338 340 342 343 343 342 341 340 340 341 342 341 340 340 340 340 339 339 338 337 335 333 332 331 330 329 328 327 326 324 323 323 322 321 321 320 321 320 317 312 308 309 310 311 312 313 314 314 315 315 316 316 317 317 318 318
358 357 356 355 354 352 350 346 347 347 345 342 340 338 337 337 337 336 335 336 338 339 341 342 342 341 342 342 342 342 341 340 339 339 339 338 336 335 334 333 332 330 329 328 327 326 324 322 320 320 320 319 319 318 318 317 314 310 308 309 310 310 311 311 312 313 314 315 316 316 317 317 317 317
358 357 357 356 354 353 351 348 346 348 348 345 342 340 339 339 339 339 337 337 337 337 339 340 341 341 342 342 342 343 341 340 339 340 338 336 334 333 332 331 330 329 328 327 326 324 323 321 319 319 319 318 317 316 315 314 313 311 310 309 309 309 309 308 309 309 310 311 312 314 315 316 316 316
357 357 357 357 355 354 353 349 346 346 348 348 347 344 343 342 342 341 340 338 338 338 338 339 339 341 341 341 342 342 340 339 339 337 334 332 332 331 331 329 328 327 326 326 325 323 322 320 319 318 318 317 316 315 314 315 314 312 311 311 310 310 309 308 308 308 309 308 309 310 312 313 315 316
356 356 357 357 356 355 354 351 348 345 346 349 350 348 347 345 343 343 342 340 338 338 338 339 339 339 340 340 339 338 337 337 336 335 332 331 331 331 330 329 326 324 323 323 322 322 320 318 317 317 317 316 315 315 315 315 315 314 313 313 312 311 311 310 309 310 311 311 311 311 311 313 314 315
355 355 355 355 355 356 355 352 349 346 345 347 350 349 348 347 345 344 343 341 339 338 337 338 339 338 338 338 336 335 335 333 330 331 331 329 328 328 327 326 324 322 321 321 321 321 319 317 316 316 315 315 314 314 314 314 315 315 315 314 313 312 312 312 311 311 312 313 313 313 313 314 315 315
355 354 354 353 353 354 354 352 350 347 344 345 349 349 348 348 346 344 343 342 340 338 337 338 338 337 336 335 335 334 332 326 323 327 329 327 325 325 324 323 322 322 322 322 321 320 318 315 314 314 314 314 314 314 314 315 315 315 315 315 315 313 312 312 312 313 313 314 314 315 314 315 315 316
355 354 354 353 352 352 352 351 350 348 345 345 347 348 348 348 347 345 343 341 340 340 339 338 338 337 336 335 334 333 328 321 319 323 326 325 324 324 322 321 322 321 322 322 320 318 317 314 313 313 313 314 314 314 314 314 314 314 314 315 316 314 313 313 313 313 313 314 315 315 315 316 317 318
355 354 353 353 352 351 350 349 349 348 345 344 345 348 348 347 346 345 343 341 340 340 340 339 339 338 337 336 334 331 326 322 321 322 324 324 323 322 321 322 321 321 321 320 317 316 315 314 313 313 313 313 313 313 313 313 313 313 314 313 313 313 313 313 313 313 313 314 315 316 316 317 318 318
355 354 354 353 353 351 349 348 347 347 345 343 343 345 346 346 345 344 342 341 340 339 339 339 338 337 336 335 334 330 326 323 322 323 324 323 322 321 321 321 321 321 321 319 316 315 315 314 313 312 313 313 313 313 313 313 313 313 312 312 312 312 312 313 313 314 314 315 315 316 317 317 318 317
355 354 354 354 353 352 350 347 346 346 345 342 341 342 344 344 343 342 341 340 339 338 339 338 337 337 336 334 331 327 325 324 324 324 323 322 321 321 321 320 320 319 319 318 316 315 316 315 313 313 313 314 314 313 313 313 313 313 313 312 312 312 312 313 314 315 316 316 316 317 317 317 317 317
356 355 355 354 353 351 349 347 345 345 344 342 341 341 342 343 343 341 341 340 339 339 339 338 337 337 335 332 328 325 325 325 324 324 323 322 322 322 321 321 320 318 317 316 315 315 315 315 314 312 312 312 313 313 313 313 313 313 312 312 311 312 313 314 315 316 316 316 316 317 317 317 317 316
356 355 355 354 353 352 349 346 345 344 342 342 340 339 340 342 342 340 340 340 339 339 339 338 337 337 333 329 327 325 325 325 325 324 323 323 323 323 322 321 320 318 316 315 314 314 314 314 313 312 312 311 311 312 313 313 313 312 311 311 312 313 314 315 316 316 315 315 316 316 317 317 316 316
356 355 354 354 352 350 348 346 344 342 341 340 339 337 339 341 340 339 340 340 339 340 339 337 337 335 331 327 326 326 327 327 325 324 324 324 323 323 322 321 319 318 317 316 315 314 313 313 313 312 312 312 311 312 312 312 312 311 311 311 312 314 315 316 315 315 315 315 315 315 315 315 316 316
355 354 353 353 352 350 347 346 344 342 340 339 337 336 338 339 338 338 340 339 338 339 338 336 335 333 329 327 327 328 328 327 325 324 324 324 324 322 321 320 320 319 317 316 314 313 312 312 311 311 312 312 312 312 312 311 311 311 311 312 313 315 316 315 315 315 315 315 315 314 314 314 315 315
354 353 352 351 350 348 344 341 339 338 337 337 337 336 336 338 338 339 339 338 337 337 336 335 334 330 327 327 329 329 327 325 325 325 325 324 323 321 320 320 319 318 317 315 314 313 312 312 312 312 312 312 312 312 312 311 311 311 311 312 313 315 315 314 314 314 315 315 315 315 314 314 314 314
351 350 349 347 344 341 338 335 334 334 334 335 335 335 335 337 338 339 338 337 337 336 335 334 331 328 327 328 328 326 324 324 325 326 325 324 323 321 320 319 319 318 317 315 313 313 312 312 312 313 313 313 313 312 312 312 311 311 312 312 313 314 315 314 314 314 314 315 315 314 314 314 313 313
347 346 343 341 339 336 335 334 334 333 333 334 334 335 336 337 339 338 337 337 337 336 335 332 330 328 328 327 325 324 324 325 326 326 324 323 323 321 320 319 319 318 316 314 313 312 312 312 312 313 313 313 314 315 314 314 313 313 312 312 313 313 314 313 313 313 314 314 314 314 314 314 313 312
344 343 341 338 337 336 335 335 334 334 334 334 335 335 336 337 338 338 337 337 337 336 334 331 329 328 327 325 324 324 325 326 326 325 324 323 322 321 320 319 318 317 316 314 312 311 311 311 311 312 312 312 313 314 314 314 313 314 313 312 313 313 313 313 313 314 313 313 313 313 313 312 312 311
343 341 339 338 337 337 336 336 335 334 334 335 335 336 336 337 337 336 336 336 336 335 333 331 328 326 325 324 325 325 325 325 325 324 323 322 321 320 319 318 317 316 315 312 311 311 311 310 310 311 311 311 311 312 313 314 313 312 312 312 313 313 313 313 314 313 313 313 312 311 311 310 310 310
341 341 340 338 338 337 337 336 335 335 335 335 335 336 336 336 335 335 336 336 335 334 331 329 326 325 324 325 325 325 324 325 324 323 322 321 321 319 318 318 317 315 313 312 311 310 310 310 310 310 311 311 311 310 312 314 314 312 312 311 312 312 314 314 314 313 313 313 311 310 309 308 308 308
340 340 339 338 338 337 337 336 335 335 335 335 335 335 336 335 335 335 335 335 333 332 329 327 326 325 325 325 325 325 325 324 323 322 322 321 320 319 318 317 316 314 313 312 311 310 310 310 311 311 311 311 311 310 311 311 312 312 311 310 311 313 314 314 314 314 313 312 311 309 307 306 306 306
340 339 339 338 337 337 336 336 335 336 335 335 335 335 335 335 334 335 334 333 332 331 328 326 325 325 325 325 326 326 325 324 323 322 321 320 319 318 318 316 315 313 312 312 311 310 310 310 311 311 311 311 311 310 310 309 308 309 309 310 312 314 315 314 313 313 312 311 310 309 308 306 306 306
340 338 338 337 336 336 336 335 335 336 335 335 335 335 335 335 335 334 333 332 331 330 328 326 325 325 325 325 326 325 324 323 323 322 321 319 318 317 316 315 313 313 312 311 310 310 310 310 311 311 310 309 308 308 308 309 309 311 312 313 313 314 313 313 313 312 311 311 310 309 308 307 306 307
339 338 338 337 336 336 336 335 335 335 335 336 336 335 335 334 334 333 332 331 331 329 327 326 326 326 326 326 326 325 323 323 322 321 319 318 317 316 314 313 312 312 311 310 310 309 309 310 311 310 308 307 307 309 310 312 312 312 312 313 313 312 312 311 311 311 311 310 309 308 307 306 306 307
338 338 337 336 337 336 335 335 336 335 336 336 336 335 335 334 333 332 332 331 330 329 327 327 327 327 327 326 325 324 322 322 321 319 318 317 316 314 312 310 310 310 310 310 310 310 309 309 309 309 309 309 310 312 312 313 312 312 311 311 312 312 312 312 311 311 310 309 308 308 307 306 306 307
337 337 337 336 337 337 336 336 336 336 336 336 335 335 334 334 333 332 332 331 330 328 327 328 329 328 327 326 324 323 321 320 319 318 317 316 315 313 312 311 310 310 310 310 310 309 309 309 309 310 310 311 311 311 311 311 311 311 311 311 312 312 313 313 312 310 309 308 307 307 306 306 306 306
337 337 336 336 336 336 336 336 336 335 336 335 334 334 334 333 333 332 332 331 330 328 328 329 328 327 326 325 323 321 320 319 318 317 316 315 314 313 313 312 311 311 310 310 309 308 309 309 309 309 309 310 310 310 310 311 311 310 311 312 313 313 313 312 311 309 308 307 306 306 305 305 305 305
336 335 335 335 335 336 336 336 335 335 335 335 334 334 333 332 332 331 331 330 329 327 328 328 327 325 324 322 321 320 319 318 317 316 315 314 313 312 312 311 311 311 310 310 309 309 309 309 308 309 309 310 310 310 310 310 310 311 312 313 313 313 312 311 310 308 307 306 305 304 304 304 305 305
Wind_Speed
13 12 12 11 10 8 8 8 8 7 7 6 7 7 7 6 3 2 3 3 4 5 5 5 6 5 4 4 5 5 6 7 6 4 4 5 5 5 5 4 5 6 7 8 9 10 12 13 15 16 18 18 17 17 17 18 19 19 19 18 18 18 18 18 18 17 17 17 17 17 16 16 15 15
13 13 12 12 11 10 10 10 10 9 9 8 9 9 9 8 7 5 3 3 5 5 5 4 4 5 5 6 6 6 6 7 6 5 5 5 5 6 5 4 4 5 6 8 9 10 11 13 15 16 17 17 17 17 16 17 18 18 18 18 18 18 18 19 19 18 18 17 17 18 18 18 17 17
14 14 13 13 12 11 11 11 11 11 11 10 10 10 10 10 9 8 6 4 5 6 6 5 3 4 6 7 6 7 7 7 7 6 5 6 7 7 5 5 4 5 6 8 9 11 12 13 15 16 16 16 16 16 15 16 16 17 18 18 18 18 18 18 18 18 18 17 17 17 18 18 18 18
15 15 15 14 13 12 12 12 12 13 12 12 12 11 11 11 11 10 8 6 5 6 6 5 5 6 6 7 7 8 7 7 7 7 6 7 7 6 7 7 7 6 7 8 9 10 11 13 14 14 15 14 14 15 15 16 17 17 18 18 19 19 18 18 18 18 17 17 17 17 17 18 18 19
15 16 16 15 15 14 13 13 14 14 14 14 13 13 12 12 12 11 10 8 6 7 7 6 6 6 6 7 8 9 8 7 8 8 7 7 8 7 7 8 9 9 9 9 9 10 10 12 13 13 14 14 15 16 16 16 17 17 18 18 19 19 19 19 19 19 19 19 19 19 19 20 20 20
16 16 17 16 16 15 15 15 15 15 15 15 14 14 13 13 12 12 11 9 8 7 7 7 7 7 7 8 8 9 9 8 8 8 8 8 8 8 8 8 9 10 10 11 11 11 11 11 12 14 15 16 17 17 17 17 17 18 18 19 20 20 21 22 22 23 22 21 21 22 22 22 22 22
18 17 17 17 17 17 17 16 16 15 15 15 15 14 14 13 13 12 12 10 9 8 8 7 7 8 8 7 8 8 8 8 8 9 9 9 9 9 9 8 9 10 11 12 11 11 11 12 13 14 16 17 17 17 17 17 18 18 19 20 21 21 22 22 23 23 23 21 20 20 20 21 22 22
20 19 18 19 19 18 18 18 17 16 16 15 15 15 14 14 13 12 12 11 10 8 8 7 7 7 7 7 7 8 8 8 9 9 9 10 10 9 9 9 8 11 13 12 11 10 11 12 13 14 15 16 17 17 17 17 18 19 20 21 22 22 21 20 20 20 20 20 19 18 18 18 19 20
21 20 20 20 20 20 19 19 18 17 17 16 16 15 15 14 13 12 12 11 11 9 8 7 7 7 7 7 8 9 8 8 9 10 10 10 10 9 9 9 8 11 12 11 9 10 11 12 12 13 14 14 15 15 16 17 18 19 20 20 20 20 19 17 17 17 17 18 19 19 18 17 17 18
23 22 21 21 21 22 21 20 19 18 18 18 17 16 16 15 14 13 12 11 11 11 9 8 8 8 8 8 8 9 9 9 9 10 10 10 10 9 8 8 7 8 9 8 8 9 10 10 11 12 14 14 14 15 16 16 17 16 16 16 16 16 16 16 16 16 16 17 17 18 19 19 18 17
24 23 22 22 23 24 23 22 20 19 19 19 18 18 17 16 15 14 14 13 12 12 11 10 10 9 9 9 9 9 10 9 9 9 9 9 9 8 8 8 7 7 8 9 9 9 10 11 10 12 14 15 15 16 16 15 13 12 12 13 14 15 14 14 14 14 14 15 15 16 17 18 18 17
24 24 23 23 24 25 25 24 21 20 20 20 19 18 18 17 17 16 14 14 13 13 12 12 11 10 10 10 9 9 10 10 10 10 9 9 7 7 7 7 6 6 7 8 8 8 9 11 11 12 15 17 15 16 16 15 12 9 9 10 12 13 12 12 12 13 14 15 15 16 17 17 18 18
25 24 24 24 25 25 26 27 25 22 21 20 19 19 19 19 18 17 15 14 14 14 13 13 12 11 11 11 11 11 11 11 10 9 9 8 8 7 7 6 6 6 6 6 7 8 9 11 11 12 14 14 13 15 15 13 9 6 7 10 11 12 13 14 15 16 17 18 19 19 20 20 20 20
25 25 25 25 26 27 28 29 29 27 26 24 21 19 20 20 19 18 17 16 15 14 14 13 12 12 12 12 12 12 12 11 10 8 8 9 8 7 7 6 5 5 5 6 8 9 10 11 12 13 13 12 12 12 11 9 8 9 12 14 14 14 16 17 19 20 21 21 22 22 21 21 22 22
24 25 25 24 25 28 30 30 30 30 29 28 26 23 22 22 21 20 18 17 16 15 14 13 13 13 12 12 12 12 11 10 10 9 9 9 8 7 7 6 5 5 5 6 8 11 11 10 11 12 11 11 11 10 10 11 13 15 16 16 17 17 18 18 19 19 19 20 19 19 19 19 19 20
24 24 24 23 22 25 30 31 30 31 32 30 29 27 26 26 25 22 20 18 17 16 15 14 13 13 12 11 12 11 10 10 10 9 9 9 8 7 7 7 6 5 5 6 8 11 10 9 11 11 10 11 10 10 12 13 14 15 15 15 15 16 16 16 16 15 15 15 16 16 17 17 18 18
25 24 23 22 21 22 28 30 27 28 32 32 30 28 28 29 28 27 24 22 19 17 15 15 14 13 12 12 12 11 10 9 9 9 10 9 8 8 7 7 6 5 5 6 8 9 9 8 9 10 10 10 10 10 12 13 14 15 13 12 13 13 13 13 13 13 13 14 15 16 17 17 18 18
26 25 23 22 21 21 25 29 26 24 26 30 31 31 30 29 29 29 29 27 25 21 17 16 15 14 13 13 11 11 11 10 9 9 9 9 8 7 6 6 6 7 7 6 6 7 7 7 9 11 11 10 10 10 12 14 16 14 11 11 12 13 13 13 14 14 14 15 15 16 16 16 17 18
25 26 25 24 23 22 24 30 29 25 23 25 27 30 29 27 25 27 28 28 27 25 21 18 16 15 14 13 12 11 12 11 9 8 7 6 6 5 5 6 7 8 7 6 6 7 6 7 10 11 11 10 11 11 12 14 15 13 11 12 13 13 14 14 15 16 16 16 16 16 16 17 17 18
24 26 26 25 25 23 24 30 31 28 24 21 22 24 24 23 22 22 24 26 26 24 22 20 18 16 15 15 14 13 12 10 8 8 7 6 6 6 5 6 7 6 6 7 6 6 6 7 10 11 11 11 12 12 12 12 12 12 14 14 14 14 14 13 13 15 16 17 17 17 18 18 18 19
25 27 28 27 26 25 25 29 32 30 26 22 20 21 20 20 21 20 20 22 25 25 23 22 21 18 16 17 17 16 14 12 10 9 9 9 8 7 5 5 6 5 4 5 5 4 6 7 9 11 12 12 13 13 11 10 10 13 15 15 14 15 15 14 14 14 15 16 16 16 17 18 18 19
27 29 31 31 29 26 27 30 32 31 29 25 21 21 21 20 21 21 18 19 23 26 26 24 22 20 18 18 18 16 15 14 13 11 9 9 8 7 6 6 5 5 5 5 4 3 6 8 8 10 12 13 13 11 9 9 11 12 13 14 14 14 14 15 15 14 13 14 15 15 16 17 18 18
28 29 31 34 34 29 28 31 33 32 31 28 23 22 23 22 22 22 21 19 21 24 25 23 22 21 20 18 17 16 15 14 14 12 10 9 7 7 7 6 4 5 5 4 4 3 6 7 8 9 10 10 10 10 10 10 11 12 12 12 12 12 13 15 16 14 14 14 14 15 16 17 17 16
28 29 30 33 36 34 31 31 32 32 33 30 24 22 24 23 22 22 22 20 21 22 22 20 19 19 18 17 15 15 15 15 14 13 11 9 8 7 7 6 5 6 4 3 3 2 5 7 8 9 9 9 11 12 12 11 12 12 12 11 11 12 13 14 14 14 14 14 15 16 16 16 16 15
28 29 30 31 33 35 36 35 33 32 33 31 26 23 24 23 22 22 21 20 21 21 20 19 19 18 17 16 15 14 14 14 14 13 12 10 9 8 7 6 6 6 3 2 2 3 5 6 8 8 9 11 13 14 14 14 13 11 10 11 11 12 12 13 13 13 13 14 15 16 15 14 15 17
29 29 30 30 30 33 37 39 36 32 31 32 29 25 24 22 22 22 21 20 21 22 20 20 20 19 19 17 16 15 14 14 14 14 13 11 10 8 6 5 5 6 4 4 5 4 4 5 7 7 9 12 14 16 15 14 12 10 10 11 11 11 12 12 12 12 12 13 14 15 15 16 18 21
31 29 28 30 32 33 35 40 40 35 31 32 31 27 24 22 22 23 21 21 22 22 21 20 19 19 19 18 17 15 14 15 15 14 12 12 10 8 7 6 6 7 7 6 5 3 4 5 6 7 9 12 14 15 15 14 12 12 12 11 11 11 11 11 12 12 13 13 14 15 16 18 19 20
29 28 28 32 35 34 33 38 40 37 33 32 31 29 26 23 24 25 23 22 23 22 20 20 20 19 19 18 17 16 15 15 15 14 12 11 10 9 8 7 8 8 8 7 6 5 5 6 6 6 9 12 14 15 14 15 14 13 13 12 12 11 10 11 11 12 12 14 15 16 17 18 18 18
27 28 29 32 34 33 33 35 38 37 34 31 30 31 28 25 26 26 23 22 23 21 18 19 20 19 19 17 16 17 16 15 15 14 12 11 11 9 8 8 9 10 9 8 6 6 6 6 6 7 9 12 14 15 15 15 15 14 13 13 12 11 11 10 10 11 13 14 15 16 17 18 18 19
26 27 30 33 34 33 33 35 37 37 35 32 30 32 31 27 26 25 23 23 24 21 20 21 20 19 18 17 16 17 16 16 16 15 13 11 11 10 9 9 9 10 9 8 6 6 6 6 6 7 9 12 14 15 15 15 16 15 14 13 13 12 10 10 11 12 13 14 16 17 18 19 19 19
31 29 31 34 35 34 33 34 34 35 35 34 33 34 35 33 30 27 26 26 26 24 23 22 21 19 18 17 17 18 17 16 16 15 14 12 11 10 10 9 9 9 8 8 7 6 6 7 7 7 10 12 14 15 15 15 16 16 14 13 12 11 10 11 12 12 13 15 17 18 19 19 19 19
37 34 33 33 35 34 33 33 34 36 36 36 36 37 36 33 31 30 29 29 28 26 24 21 20 19 19 19 18 18 18 16 16 15 14 13 11 10 10 10 10 8 7 7 6 6 7 7 8 8 9 12 15 16 16 16 15 14 14 13 12 12 12 12 12 13 14 16 18 19 19 19 19 19
38 37 37 37 37 36 34 33 32 32 32 33 35 36 34 30 28 29 31 30 28 26 23 20 20 20 20 19 18 18 17 17 16 15 15 13 11 10 10 11 10 8 7 6 5 6 6 7 8 9 11 14 16 17 16 15 14 13 12 12 12 12 12 12 13 14 15 16 18 20 20 19 19 20
37 39 41 39 38 36 33 31 29 28 28 28 30 34 34 30 28 29 31 30 27 25 24 21 21 21 20 19 19 18 17 17 15 15 15 14 12 11 11 11 10 9 7 6 5 5 6 6 7 10 12 15 17 18 18 16 13 11 10 11 12 12 13 13 13 14 15 16 18 19 20 20 20 20
35 35 35 35 36 37 36 33 31 30 31 30 31 34 35 31 29 30 31 30 27 27 26 24 22 21 21 20 20 19 18 17 15 15 15 14 13 12 12 12 10 9 7 6 6 5 5 6 7 9 11 12 14 16 18 17 11 9 10 11 12 12 13 13 13 14 15 16 16 18 20 22 21 20
36 33 32 32 35 36 35 34 33 33 34 34 35 35 33 31 31 32 32 29 27 27 27 26 23 22 21 20 20 19 17 16 16 15 15 15 13 12 13 12 10 9 8 7 6 6 6 7 7 8 10 10 9 9 10 12 9 7 10 12 12 13 13 13 13 14 15 15 16 18 20 22 23 22
32 32 33 33 35 35 34 35 36 35 35 36 38 38 36 34 32 32 31 29 26 26 27 26 23 22 22 20 19 18 16 16 16 16 15 14 13 12 12 12 11 10 9 7 7 6 6 7 8 8 9 8 6 6 5 6 8 8 9 11 13 14 14 14 14 15 15 15 17 18 20 22 24 24
33 31 31 31 32 33 34 36 37 35 35 37 38 38 37 35 32 31 31 29 26 26 26 25 23 22 22 20 19 17 16 16 17 16 15 14 13 12 12 12 11 10 9 8 7 7 7 8 9 9 9 7 6 6 6 6 8 9 10 13 15 15 13 14 15 16 16 16 18 19 20 22 24 25
37 35 33 33 34 33 35 38 38 36 37 39 39 38 37 35 32 31 30 29 27 26 25 24 23 22 21 20 18 17 16 17 17 16 15 14 13 13 12 12 11 10 9 8 7 8 9 10 10 10 9 9 8 8 9 11 13 13 14 17 17 14 12 14 15 17 17 18 19 19 20 21 23 25
42 41 39 39 40 40 40 40 39 37 37 37 38 39 39 37 35 32 30 29 28 26 24 23 23 22 21 19 18 17 17 18 17 16 15 14 13 13 12 11 11 9 9 8 8 8 9 10 10 9 9 10 11 12 13 14 15 15 15 15 13 12 12 13 14 16 18 18 19 20 21 21 21 22
42 43 42 43 44 44 43 41 39 38 38 36 36 37 37 35 34 31 30 30 29 26 23 23 22 21 20 19 18 17 17 17 17 15 14 13 13 12 12 11 10 10 9 8 8 8 8 7 8 10 12 12 12 12 12 12 12 12 11 11 11 11 11 12 14 16 17 18 19 19 19 20 21 22
46 44 45 47 46 44 45 45 45 44 43 39 37 37 35 33 32 30 28 28 27 25 23 22 21 20 19 18 18 18 17 17 16 15 14 13 13 13 13 12 12 11 10 9 8 7 6 5 7 10 12 11 11 12 11 10 10 10 11 12 12 11 11 13 15 16 17 18 18 17 18 19 19 19
45 42 41 42 42 41 41 43 45 45 44 40 36 35 34 34 32 30 27 26 26 24 22 21 20 19 18 18 18 18 17 16 16 15 14 14 13 13 14 14 13 11 10 8 7 6 6 7 8 10 11 11 12 12 12 11 11 11 11 11 11 12 12 14 15 16 18 20 18 16 17 17 16 17
39 38 37 37 37 36 36 36 38 41 42 40 37 35 34 32 30 28 26 25 25 24 22 19 19 18 18 17 18 18 17 16 15 15 14 14 13 13 13 13 12 10 9 8 7 7 7 8 9 10 11 12 12 12 12 11 11 11 11 11 12 13 13 13 14 16 18 18 16 15 16 16 17 21
40 39 39 41 41 39 37 35 35 37 38 37 35 34 32 30 29 27 25 25 25 23 21 19 19 18 18 18 18 17 16 15 15 15 14 14 13 13 13 12 11 10 9 8 7 7 7 8 9 10 11 11 12 12 12 12 11 11 11 11 12 12 12 12 14 16 17 15 14 14 14 15 18 22
Wind_Direction
201 202 200 200 206 204 203 207 205 203 204 206 206 204 210 219 223 209 194 205 205 201 221 208 168 181 226 219 221 228 228 236 241 235 220 208 215 229 232 246 267 284 291 291 293 294 294 294 293 291 290 291 292 291 288 287 286 285 283 283 282 281 281 281 280 276 273 271 271 272 271 271 268 266
199 202 200 198 202 202 203 207 205 202 203 205 206 207 208 210 218 226 212 203 206 200 217 224 174 173 201 205 206 202 207 225 222 208 216 210 214 230 231 243 271 288 291 291 291 291 292 290 288 288 288 290 292 293 291 288 287 286 286 287 287 286 286 285 284 281 277 272 269 269 270 271 270 269
200 200 199 197 198 198 201 204 203 201 202 204 204 205 207 210 214 222 225 217 204 201 209 219 207 194 194 198 203 197 201 217 214 203 212 215 221 232 232 245 277 294 294 295 296 292 291 288 286 285 286 287 288 289 289 286 284 283 284 285 287 290 291 290 288 286 282 278 273 270 269 270 271 271
201 199 199 198 197 198 200 202 202 201 201 202 203 204 205 209 213 215 225 232 212 206 215 218 213 206 198 199 205 203 200 211 209 197 206 218 222 228 234 249 273 296 303 300 294 290 287 284 283 281 280 281 282 284 284 283 282 280 281 283 285 288 290 291 290 288 286 284 279 275 273 273 274 275
201 198 199 200 198 199 201 202 202 202 201 201 202 203 204 207 211 210 217 232 228 211 208 212 209 201 203 206 206 208 206 203 200 196 202 214 219 229 241 252 266 282 298 303 296 291 287 282 279 276 275 277 280 283 284 282 281 280 280 282 284 286 288 289 289 288 288 287 286 284 283 281 281 280
201 200 200 201 199 200 204 204 205 204 202 201 200 201 203 206 209 208 212 225 232 219 205 206 205 196 206 213 204 207 212 203 198 202 206 212 221 234 248 262 268 271 286 302 300 293 287 281 277 275 275 279 282 284 284 283 282 282 282 283 283 284 286 287 289 290 291 290 289 288 288 286 284 283
202 202 202 202 200 201 204 205 207 207 204 203 203 202 203 208 210 208 212 218 226 227 214 207 204 194 200 210 203 202 207 203 204 212 215 219 229 238 247 268 276 269 280 298 299 292 288 284 280 279 280 283 285 285 284 284 284 285 285 286 287 287 287 288 290 292 294 295 294 291 290 288 286 283
204 204 204 206 203 201 205 206 206 208 206 204 205 204 204 208 211 209 211 216 222 231 227 215 207 198 198 206 202 198 202 207 213 218 220 224 232 239 247 264 267 264 279 298 297 290 290 286 282 282 283 284 285 286 286 287 287 288 288 288 289 290 292 293 292 292 294 297 298 297 294 290 287 284
205 206 207 208 204 202 205 207 207 208 207 204 205 206 206 206 210 211 212 215 220 227 233 225 210 201 205 210 206 203 209 215 216 219 223 227 234 240 251 263 261 263 281 297 299 298 301 296 289 286 287 287 285 284 285 287 287 288 288 289 290 292 294 295 294 292 292 293 295 297 297 294 291 287
207 209 210 209 206 204 206 208 208 207 206 205 206 207 207 204 205 210 212 214 219 223 231 231 220 212 211 212 210 206 210 218 220 223 226 231 235 235 245 262 267 268 275 279 285 295 301 300 295 291 291 292 289 288 290 291 291 290 289 292 293 295 295 293 292 291 290 290 290 291 293 293 294 292
211 211 212 211 208 207 208 209 209 207 205 206 207 207 207 204 204 208 211 213 216 221 225 227 226 223 216 216 215 205 205 218 229 232 236 238 231 225 237 257 269 276 278 279 285 289 291 296 295 291 295 299 299 299 301 303 303 297 290 292 295 296 295 292 290 290 288 288 288 286 287 289 292 295
214 213 214 215 213 210 211 211 209 207 204 204 206 207 206 205 205 207 210 212 215 220 223 224 225 224 219 218 215 204 203 217 229 230 235 246 244 236 241 247 256 270 279 288 295 294 293 300 302 297 300 306 307 305 305 306 308 298 288 295 297 295 294 289 287 286 284 284 283 283 283 284 286 290
215 214 215 218 216 214 216 216 213 209 205 203 203 205 204 204 206 207 209 210 213 217 220 222 222 222 222 220 214 210 210 218 227 222 223 243 255 256 255 253 250 259 271 284 291 291 291 296 298 296 298 302 302 302 302 301 301 291 287 295 292 286 287 287 285 287 286 286 285 284 283 283 282 282
214 215 216 218 218 218 220 223 221 216 212 210 207 205 204 204 204 205 208 210 211 214 218 221 221 222 226 225 219 217 217 219 222 217 218 238 250 251 258 265 249 237 260 284 288 291 293 293 294 294 295 297 298 300 299 292 289 292 294 294 289 284 286 287 287 289 289 289 289 287 285 284 282 281
214 214 216 217 218 218 220 225 226 223 220 219 218 214 210 210 208 206 207 210 211 213 216 221 223 224 229 229 221 219 222 221 219 220 224 233 241 243 250 263 248 227 252 283 287 288 289 288 289 291 294 296 297 296 293 289 290 296 297 296 294 293 293 292 291 290 289 288 288 288 287 286 285 284
213 213 214 215 214 215 219 222 224 225 224 224 226 225 220 219 217 214 212 212 212 214 217 220 222 224 228 228 221 221 225 220 214 221 227 227 233 239 243 256 256 244 262 280 282 284 286 284 285 289 292 294 296 296 293 291 295 301 304 303 303 303 302 300 297 293 290 288 286 286 286 286 287 287
213 212 212 212 209 213 220 220 217 220 223 224 226 228 226 224 225 224 222 219 216 217 220 223 223 221 222 223 221 219 217 210 210 223 229 226 227 231 238 252 258 259 267 268 270 279 285 286 287 291 296 296 297 298 292 289 298 309 313 312 313 313 310 306 302 296 291 288 285 284 284 285 286 287
214 212 210 210 207 208 218 220 211 208 216 221 222 225 225 224 226 228 228 225 223 223 225 226 224 220 218 218 216 205 198 203 217 229 231 226 225 231 241 250 257 260 253 244 260 278 285 293 294 295 299 299 296 294 289 291 301 311 316 316 316 315 312 309 306 302 297 292 288 286 284 283 284 285
216 214 211 210 209 206 214 221 216 204 204 211 214 218 220 219 221 225 225 224 223 222 223 225 225 221 216 212 204 195 194 204 216 225 227 221 218 232 246 247 250 251 230 212 245 276 286 301 301 299 302 302 297 296 293 294 297 301 308 317 318 316 313 308 304 302 300 297 295 293 290 287 286 287
219 218 213 210 211 208 211 223 223 211 201 200 204 209 212 214 217 221 221 220 218 217 219 221 223 222 215 206 198 192 193 197 201 208 212 209 209 219 235 245 250 243 207 198 229 268 292 309 307 303 305 304 299 296 294 291 291 294 304 315 320 321 322 318 311 306 303 300 298 297 296 294 291 290
222 224 218 210 211 210 211 222 227 218 206 200 201 205 206 209 215 219 219 216 214 214 214 215 218 219 212 207 203 201 201 197 191 197 208 213 213 213 222 242 248 247 235 221 226 267 302 313 309 303 304 303 297 293 290 289 291 294 300 310 317 318 319 321 321 315 310 307 304 300 299 296 293 294
220 224 222 216 213 209 211 221 227 221 210 202 202 207 209 210 215 218 214 205 206 210 211 210 213 214 211 209 208 208 210 204 196 199 213 223 220 215 226 240 242 257 263 234 205 272 311 317 311 304 304 301 296 292 292 293 293 294 300 309 314 312 311 315 319 318 313 310 308 305 302 298 294 295
217 222 225 224 220 214 213 220 226 222 213 204 201 209 214 214 216 215 207 199 201 204 203 205 208 208 207 207 206 206 207 204 200 203 216 225 217 215 232 239 236 260 261 195 174 277 311 316 312 306 305 303 300 300 298 296 298 300 302 305 307 309 312 314 316 316 313 309 307 305 304 301 296 292
214 218 223 226 225 221 217 220 224 222 216 207 201 207 215 216 216 212 202 197 202 202 195 194 198 199 198 195 193 197 199 199 200 204 213 218 208 209 229 231 231 256 254 162 156 307 315 310 305 304 303 301 298 299 301 301 303 303 303 304 306 310 314 315 314 312 308 304 301 300 301 299 294 288
211 214 218 223 226 222 218 219 221 220 216 209 203 206 213 215 216 212 199 191 198 202 195 189 191 193 191 188 186 188 190 193 198 202 207 210 204 208 225 230 239 255 249 203 252 302 304 296 298 302 301 296 294 298 303 303 301 300 304 307 308 310 313 312 311 310 307 303 303 303 303 299 292 289
210 211 212 217 221 221 219 217 217 217 215 210 205 205 207 209 211 207 196 187 194 199 195 190 191 192 192 194 192 188 186 190 195 198 202 202 202 210 219 222 238 253 256 265 280 283 273 282 294 300 300 297 296 299 301 299 299 304 308 309 310 311 312 311 312 313 311 307 306 305 303 299 294 294
210 208 208 212 217 220 218 215 214 214 212 209 206 202 201 205 204 196 188 186 192 195 193 190 192 194 196 198 194 188 187 189 190 193 197 196 199 209 213 210 225 241 249 261 266 250 247 270 284 290 294 295 295 296 297 299 303 307 307 309 311 310 311 314 314 313 311 309 307 305 302 299 298 299
209 206 205 207 211 216 216 212 211 212 209 207 205 200 198 201 197 188 182 187 192 192 189 190 193 196 200 199 191 186 187 185 183 187 192 193 198 208 212 214 226 237 242 248 247 238 242 257 271 282 288 289 289 290 293 297 301 304 308 311 311 310 311 313 311 310 311 312 310 308 306 304 304 303
210 206 204 204 208 213 213 208 206 207 207 204 202 198 196 195 192 188 185 188 192 190 186 189 195 199 200 198 188 183 182 176 176 183 189 193 201 207 209 216 228 235 238 239 236 230 231 244 263 281 285 283 282 283 287 293 296 300 304 306 307 308 308 307 308 310 311 311 310 309 307 305 304 303
214 209 205 204 205 207 206 201 200 201 200 198 196 195 192 191 191 191 190 189 189 187 185 191 199 203 199 192 182 177 174 172 176 184 189 193 202 206 209 218 229 234 232 228 225 222 225 240 260 275 280 279 278 279 283 289 292 295 299 301 303 306 306 308 311 310 309 310 310 308 306 303 300 298
217 214 208 202 201 203 201 199 197 195 194 193 192 191 191 190 190 191 192 191 189 189 190 195 201 201 194 184 175 173 175 177 182 187 190 196 204 206 207 220 235 238 228 220 220 220 226 245 261 266 270 274 276 279 282 283 285 288 294 297 299 301 305 310 312 310 311 313 310 307 304 302 298 295
213 211 202 194 193 193 190 187 187 188 189 190 189 189 191 191 188 188 190 190 190 191 193 195 198 196 188 180 176 177 180 184 187 188 191 201 208 204 205 222 240 243 229 220 219 220 229 246 255 254 257 265 272 278 280 279 278 282 289 296 298 301 304 308 311 314 315 313 309 306 304 300 297 295
199 195 186 182 182 181 178 177 178 181 183 184 186 187 188 188 187 186 187 187 187 188 189 190 192 190 184 180 180 183 185 188 190 189 192 201 205 201 210 231 245 246 239 231 224 225 235 245 248 252 257 261 265 269 272 275 276 279 287 297 299 300 305 309 311 315 317 313 308 305 303 300 298 296
190 184 177 176 177 175 173 173 175 177 177 177 179 182 183 184 185 184 184 186 185 182 183 186 187 186 184 183 184 187 188 188 189 190 194 198 198 199 216 235 241 237 234 236 233 233 240 247 253 259 263 263 260 255 252 257 269 278 287 298 301 301 305 311 312 314 316 312 308 304 302 300 299 298
190 184 176 175 176 174 172 172 173 176 175 173 175 178 180 182 182 182 186 188 182 175 179 187 188 187 186 186 187 189 189 188 190 194 198 199 197 203 221 235 236 229 225 228 232 234 242 253 262 269 272 271 267 255 240 235 249 277 288 295 302 303 305 311 314 314 313 310 307 306 303 302 301 301
193 187 182 177 176 176 174 172 172 173 173 173 175 175 176 178 180 182 188 189 179 172 180 190 191 188 188 187 189 191 190 190 196 200 202 203 201 206 222 232 232 229 228 227 227 228 238 251 262 274 280 280 284 277 241 211 215 270 295 298 301 303 305 309 311 310 310 311 310 308 304 302 302 302
193 192 189 183 180 179 175 171 170 170 171 173 174 173 173 174 178 183 189 188 179 175 184 190 188 186 188 188 189 190 190 195 205 209 207 206 204 207 219 225 222 222 223 218 215 219 233 246 252 262 275 278 282 295 280 213 217 252 284 298 300 300 301 304 306 307 310 310 309 308 305 301 300 300
190 192 189 185 183 181 174 170 169 168 169 171 171 171 171 170 174 183 186 183 178 179 185 188 185 185 188 188 188 190 193 202 213 214 208 204 204 207 217 222 219 216 214 210 210 217 228 240 245 249 261 270 273 286 300 291 273 272 283 293 294 294 297 302 305 309 311 310 309 308 304 299 297 297
185 187 186 182 180 178 174 172 171 169 169 169 168 168 168 166 171 179 180 177 178 182 185 186 185 185 187 188 188 192 199 209 215 213 205 203 205 207 214 221 219 211 208 207 210 214 222 234 242 244 250 262 273 282 291 294 290 288 286 283 278 276 286 299 305 308 311 312 311 309 305 300 298 299
182 184 185 181 178 177 176 174 172 168 167 168 168 168 168 168 171 174 174 175 180 185 186 185 185 184 186 187 189 196 206 212 213 209 204 204 205 205 212 219 215 209 208 208 209 217 226 232 233 234 243 261 273 277 277 278 277 278 278 276 270 267 277 291 301 306 309 312 313 311 308 306 306 308
179 181 183 180 177 175 173 169 166 164 165 168 169 168 168 169 171 172 173 176 179 182 184 184 183 182 183 185 193 204 210 209 207 205 203 203 203 202 206 212 212 211 210 209 210 218 226 228 230 238 250 261 265 264 264 266 272 279 287 291 289 284 283 292 300 301 302 308 311 310 309 309 309 310
178 179 181 179 175 172 169 165 163 164 165 167 169 167 166 168 170 171 172 174 176 178 182 183 181 180 183 189 199 207 205 200 200 201 199 199 199 196 198 208 217 216 209 207 212 217 220 229 242 249 253 252 250 254 261 268 279 289 293 294 294 291 289 296 302 302 302 305 305 302 305 309 311 311
177 175 175 173 170 166 163 162 161 161 161 163 165 165 165 168 169 169 169 170 174 178 181 180 178 181 187 192 198 201 198 195 197 199 196 196 198 197 199 207 216 214 206 205 211 219 228 235 241 245 248 246 246 254 263 270 278 286 288 292 298 297 294 297 303 307 308 307 301 295 294 296 297 300
168 166 163 159 155 152 153 156 158 156 156 158 162 165 166 165 164 164 166 170 174 178 180 179 178 181 185 186 189 194 196 196 196 194 192 195 199 202 204 206 205 206 208 210 212 220 229 236 241 246 249 251 253 258 265 270 277 284 289 293 295 295 298 303 308 310 311 310 308 303 295 291 292 298
156 154 151 146 144 146 151 155 155 153 155 158 160 164 164 162 159 161 165 170 174 177 177 177 177 179 181 183 186 192 194 193 191 190 191 194 198 203 209 209 205 205 209 209 211 220 229 237 244 247 249 252 256 259 264 269 272 276 281 287 291 298 306 310 311 312 313 314 314 310 303 303 307 310